Bryce T. Bolin (Goddard宇宙飛行センター)の通報によると、8月15-16日UT、"Zwicky
Transient Facility" (ZTF)サーベイのPalomarにある、1.2-m Schmidt望遠鏡で得た画像から
彗星を発見した。
この彗星は、幅約4"のコマが見え、p.a. 約272°に約20" の広い尾がある。
小惑星センターのPCCP webpageに公表後、佐藤英貴氏(東京都文京区,8月19.51日UT, 60-秒露出
12枚のスタック, 0.61-m f/6.5 アストログラフ, Sierra Remote 天文台, Auberry近郊, CA,
米国, 遠隔操作: 強く集光した8"のコマが見えるが尾はなかった。3".8の円形範囲で測定した
光度は18.1等であった)らCCD位置観測者によって彗星状と観測された。
彗星機能の報告は次のとおり、
OC Date Reporter Coma Tail PA Exposures
U69 2022-08-19 H. Sato 8" 12x60s
950 2022-08-20 M. Masek 7" 10" 295 17x60s
L06 2022-08-20 P. Sicoli 3" 7" 310
D35 2022-08-20 Z.-Y. Lin 5" 95" 280-290
Z28 2022-08-23 N. Paul 5".5 14x50s
G40 2022-08-24 B. Lutkenhoner 10" 15" 290 33x50s
L01 2022-08-25 K. Korlevic 11" 39" 282 18x60s
発見位置は次のとおり、
2022 UT R.A. (2000) Decl. Mag.
Aug. 15.50171 7 00 30.32 +26 53 33.3 18.5
15.50410 7 00 30.68 +26 53 32.0
15.50650 7 00 31.02 +26 53 31.5
15.50889 7 00 31.38 +26 53 30.2
16.50307 7 03 00.05 +26 46 51.9 17.8
16.50546 7 03 00.41 +26 46 50.7
16.50786 7 03 00.77 +26 46 50.2
MPCの楕円軌道要素、位置推算表は次のとおり、
Orbital elements:
P/2022 P2 (ZTF)
Epoch 2022 Aug. 9.0 TT = JDT 2459800.5
T 2022 July 8.35708 TT Rudenko
q 1.9652918 (2000.0) P Q
n 0.11990852 Peri. 136.63074 +0.36542197 -0.90864177
a 4.0728902 Node 290.99713 +0.78394724 +0.41746859
e 0.5174700 Incl. 12.50087 +0.50188993 +0.00949275
P 8.22
From 59 observations 2022 Aug. 15-29, mean residual 0".7.
Ephemeris:
Date TT R. A. (2000) Decl. Delta r Elong. Phase m1
2022 08 01 06 23 13.0 +28 12 46 2.7398 1.9763 33.6 16.5 17.6
...
2022 08 16 07 01 44.6 +26 50 16 2.6733 1.9945 39.2 18.7 17.6
...
2022 08 24 07 21 18.6 +25 52 18 2.6350 2.0076 42.4 19.9 17.6
...
2022 08 30 07 35 28.2 +25 03 17 2.6047 2.0190 44.9 20.7 17.6
2022 08 31 07 37 47.1 +24 54 42 2.5995 2.0210 45.3 20.8 17.6
2022 09 01 07 40 05.1 +24 45 59 2.5943 2.0230 45.7 20.9 17.6
...
2022 09 07 07 53 36.1 +23 51 28 2.5622 2.0360 48.3 21.7 17.6
...
2022 09 15 08 10 50.0 +22 33 21 2.5171 2.0552 51.9 22.7 17.6
...
2022 09 30 08 40 33.4 +19 54 01 2.4248 2.0965 59.2 24.2 17.6
(MPEC 2022-Q201、5165)